Simultaneous Nadir Overpasses (SNOs) Predictions

Prediction of SNOs between NOAA-19 and TERRA Satellite Orbit:

Table of predicted SNOs for the next 14.0 days since TLE Epoch: 12/6/2014
Index Date (NOAA-19) Time (NOAA-19) Lat,Lon (NOAA-19) SZA (NOAA-19 ) Date (TERRA) Time (TERRA) Lat,Lon (TERRA) SZA (TERRA ) Distance(km) Time Diff (sec)
1 12/08/2014 07:15:11 -71.24,-106.31 86.10 12/08/2014 07:15:41 -71.27,-106.32 86.08 3.07 30
2 12/08/2014 08:06:06 71.12, 61.17 93.79 12/08/2014 08:05:09 71.12, 61.08 93.78 3.08 57
3 12/10/2014 11:58:50 -71.33,-177.35 85.81 12/10/2014 11:59:56 -71.31,-177.31 85.82 2.24 66
4 12/10/2014 12:49:45 71.21, -9.87 94.09 12/10/2014 12:49:23 71.22, -9.82 94.09 1.91 22
5 12/12/2014 17:33:23 71.26, -80.84 94.31 12/12/2014 17:33:38 71.24, -80.86 94.28 3.21 15
6 12/12/2014 18:24:23 -70.96, 86.92 85.99 12/12/2014 18:23:10 -71.01, 86.42 85.96 18.97 73
7 12/14/2014 22:17:01 71.32,-151.81 94.50 12/14/2014 22:17:51 71.33,-151.76 94.51 2.46 50
8 12/14/2014 23:08:04 -71.18, 15.67 85.65 12/14/2014 23:07:22 -71.16, 15.60 85.67 3.08 42
9 12/17/2014 03:00:49 71.89, 136.24 95.15 12/17/2014 03:01:58 71.73, 137.84 95.02 58.29 69
10 12/17/2014 03:51:42 -71.25, -55.33 85.48 12/17/2014 03:51:35 -71.23, -55.35 85.50 1.56 7
11 12/17/2014 04:42:22 70.34, 113.48 93.65 12/17/2014 04:41:16 70.37, 110.97 93.62 93.72 66
12 12/19/2014 08:35:19 -71.27,-126.25 85.39 12/19/2014 08:35:48 -71.28,-126.33 85.39 3.11 29
13 12/19/2014 09:26:15 71.19, 41.16
